Location: State Camp
(41.2367°N, 77.7828°W)
Time: 13:54:12
(UTC-04:00)

Hubble Space Telescope - Visible Passes

Search period start: 04 August 2015 00:00
Search period end: 14 August 2015 00:00
Orbit: 541 x 545 km, 28.5° (Epoch: 03 August)

Date Brightness Start Highest point End Pass type
(mag) Time Alt. Az. Time Alt. Az. Time Alt. Az.
05 Aug 3.0 22:09:43 10° SSW 22:10:23 12° SSW 22:10:23 12° SSW visible
06 Aug 2.9 22:00:40 10° SSW 22:02:04 13° SSW 22:02:04 13° SSW visible
07 Aug 2.8 21:51:41 10° SW 21:53:40 14° S 21:53:40 14° S visible
08 Aug 2.8 21:42:47 10° SW 21:44:49 13° S 21:45:12 13° S visible
09 Aug 2.9 21:34:00 10° SSW 21:35:47 12° S 21:36:42 12° S visible
10 Aug 3.0 21:25:23 10° SSW 21:26:45 11° S 21:28:05 10° S visible
11 Aug 3.2 21:17:33 10° SSW 21:17:44 10° SSW 21:17:50 10° SSW visible
